Location: Fontevrault
(47.1823°N, 0.0493°E)
Time: 03:17:39
(UTC+00:00)

Uosat 12 SS-18 rocket - Pass Details

Date: 29 October 2021
Orbit: 579 x 1405 km, 64.6° (Epoch: 01 December)

Event Time Altitude Azimuth Distance (km) Brightness Sun altitude
Rises 17:43:06 0° 286° (WNW) 3,350 9.1 -9.9°
Reaches altitude 10° 17:46:09 10° 305° (NW) 2,564 7.9 -10.4°
Maximum altitude 17:50:23 19° 349° (N) 2,175 6.9 -11.2°
Drops below altitude 10° 17:55:12 10° 33° (NNE) 2,987 7.2 -12.0°
Enters shadow 17:57:02 - 42° (NE) 3,490 7.4 -12.3°
